Home > Time Zones > World Clock > Weather > Iran > Gorgan > Past weeks

Flag for Iran Weather past 2 weeks in Gorgan, Iran

Now
63 °F

Clear.


Feels Like: 63 °F
Forecast: 54 / 81 °F
Wind: 7 mph from Southeast

Location: Gorgan Airport

Current Time: Oct 22, 2014 at 7:40:02 PM

Latest Report: Oct 22, 2014 at 6:30 PM


Visibility: 10 mi

Pressure: 30.01 "Hg

Humidity: 73%

Dew point: 54 °F

Location of GorganLocation

Historic Weather in Gorgan — Graph

°F

Gorgan temperature yesterday

Maximum temperature yesterday: 73 °F (at 11:30 PM)
Minimum temperature yesterday: 50 °F (at 5:30 AM)
Average temperature yesterday: 57 °F

Past Weeks' High & Low Weather Summary

 TemperatureHumidityPressure
High88 °F (Oct 19, 3:30 PM)100% (Oct 9, 5:30 AM)30.42 "Hg (Oct 9, 5:30 AM)
Low46 °F (Oct 13, 6:30 AM)25% (Oct 18, 12:30 PM)29.65 "Hg (Oct 19, 3:30 AM)
Average63 °F75%30.09 "Hg
* Reported Oct 7 5:30 PM — Oct 22 5:30 PM, Gorgan, Weather by CustomWeather, © 2014

Note: Actual official high and low records may vary slightly from our data, if they occured in-between our weather recording intervals... More about our weather records

Advertising

Gorgan weather history for previous 24 hours

 ConditionsComfort  
Time TempWeatherWind HumidityBarometerVisibility
5:30 PM
Oct 22
66 °FSunny.7 mph64%29.98 "Hg10 mi
4:30 PM73 °FMild.N/A47%29.98 "HgN/A
3:30 PM75 °FPassing clouds.5 mph41%29.98 "HgN/A
2:30 PM73 °FPassing clouds.No wind44%29.98 "HgN/A
1:30 PM73 °FPassing clouds.7 mph44%30.01 "HgN/A
12:30 PM72 °FScattered clouds.5 mph47%30.01 "HgN/A
11:30 AM70 °FScattered clouds.7 mph53%30.04 "HgN/A
10:30 AM66 °FBroken clouds.5 mph60%30.07 "HgN/A
9:30 AM64 °FBroken clouds.No wind73%30.07 "HgN/A
8:30 AM61 °FBroken clouds.No wind83%30.04 "HgN/A
7:30 AM59 °FBroken clouds.No wind88%30.04 "HgN/A
6:30 AM57 °FMostly cloudy.No wind94%30.01 "HgN/A
5:30 AM57 °FMostly cloudy.No wind88%30.01 "HgN/A
4:30 AM55 °FPartly cloudy.No wind88%29.98 "HgN/A
3:30 AM55 °FPartly cloudy.No wind88%29.98 "HgN/A
2:30 AM55 °FMostly cloudy.No wind88%29.98 "HgN/A
1:30 AM57 °FPassing clouds.5 mph82%29.98 "HgN/A
12:30 AM57 °FMostly cloudy.12 mph82%29.95 "HgN/A
11:30 PM
Oct 21
73 °FPassing clouds.7 mph50%N/AN/A
10:30 PM55 °FPassing clouds.5 mph88%29.95 "HgN/A
10:00 PM55 °FPassing clouds.5 mph88%29.98 "Hg5 mi
9:30 PM57 °FPassing clouds.5 mph88%29.98 "Hg5 mi
8:30 PM55 °FPassing clouds.5 mph94%29.98 "Hg5 mi
8:00 PM55 °FPassing clouds.5 mph88%29.98 "Hg5 mi
7:30 PM57 °FPassing clouds.No wind88%29.95 "Hg5 mi
Weather by CustomWeather, © 2014

See weather overviewHow to use our weather pages